Simultaneous Nadir Overpasses (SNOs) Predictions

Prediction of SNOs between GOES-16 and METOP-B Satellite Orbit:

Table of predicted SNOs for the next 14.0 days since TLE Epoch: 7/5/2019
Index Date Time (GOES-16) GOES-16 Lat,Lon METOP-B Lat,Lon Distance(km) Time Diff (sec)
1 07/06/2019 02:38:53 0.00, -75.19 -0.40, -76.93 198.83 80
2 07/07/2019 02:15:35 0.01, -75.20 0.76, -71.95 370.50 80
3 07/08/2019 14:37:06 -0.01, -75.21 0.30, -76.50 148.26 80
4 07/09/2019 14:13:48 -0.02, -75.21 -0.86, -71.52 421.65 80
5 07/11/2019 02:35:27 0.01, -75.23 -0.21, -76.10 100.64 80
6 07/12/2019 02:12:09 0.01, -75.24 0.96, -71.12 469.66 80
7 07/13/2019 14:33:40 -0.01, -75.26 0.10, -75.67 47.84 80
8 07/16/2019 02:32:01 0.01, -75.29 -0.00, -75.28 2.26 80
9 07/18/2019 14:27:34 -0.02, -75.34 -0.10, -74.84 55.55 80




NCC Satellite Simultaneous Nadir Overpasses (SNOs) Prediction Service
